Regional Weather Roundup
Issued by NWS

Home | Current Version | Previous Version | Text Only | Print | Product List | Glossary On
Versions: 1 2 3 4 5 6 7 8 9 10 11 12 13 14 15 16 17 18 19 20 21 22 23 24 25 26 27 28 29 30 31 32 33 34 35 36 37 38 39 40 41 42 43 44 45 46 47 48 49 50
000
ASCA44 KEWX 270920
RWRMX

LATIN AMERICA AND CARIBBEAN REGIONAL WEATHER ROUNDUP
NATIONAL WEATHER SERVICE AUSTIN/SAN ANTONIO TX
400 AM CDT THU APR 27 2017

NOTE: "FAIR" INDICATED FEW OR NO CLOUDS BELOW 12,000 FEET WITH NO
SIGNIFICANT WEATHER AND/OR OBSTRUCTIONS TO VISIBILITY.

BAJA CALIFORNIA

CITY           SKY/WX    TMP DP  RH WIND       PRES   REMARKS
MEXICALI         N/A    N/A N/A N/A MISG        N/A
S.J. DEL CABO    N/A    N/A N/A N/A MISG        N/A
TIJUANA        PTCLDY    59  52  77 CALM      29.88F

NORTHWESTERN MEXICO

CITY           SKY/WX    TMP DP  RH WIND       PRES   REMARKS
HERMOSILLO     PTCLDY    72  48  43 NE5       29.80F

NORTHEASTERN MEXICO

CITY           SKY/WX    TMP DP  RH WIND       PRES   REMARKS
MONCLOVA         N/A    N/A N/A N/A MISG        N/A
MONTERREY        N/A    N/A N/A N/A MISG        N/A
REYNOSA          N/A    N/A N/A N/A MISG        N/A
CD. VICTORIA     N/A    N/A N/A N/A MISG        N/A

WESTERN MEXICO

CITY           SKY/WX    TMP DP  RH WIND       PRES   REMARKS
AGUASCALIENTES   N/A    N/A N/A N/A MISG        N/A
COLIMA           N/A    N/A N/A N/A MISG        N/A
GUADALAJARA    PTCLDY    57  30  35 CALM      30.05F
MAZATLAN       CLEAR     63  61  94 CALM      29.81F
P. VALLARTA    PTCLDY    70  68  94 NE2       29.81F
URUAPAN          N/A    N/A N/A N/A MISG        N/A
ZACATECAS        N/A    N/A N/A N/A MISG        N/A

CENTRAL MEXICO

CITY           SKY/WX    TMP DP  RH WIND       PRES   REMARKS
CUERNAVACA       N/A    N/A N/A N/A MISG        N/A
MEXICO CITY    CLEAR     59  36  41 NE5       30.18S
MORELIA        CLEAR     54  39  58 CALM      30.09F
POZA RICA        N/A    N/A N/A N/A MISG        N/A
QUERETARO      CLEAR     50  16  25 VRB10     30.15F WCI  46
S. LUIS POTOSI PTCLDY    61  32  33 CALM      30.05F
TOLUCA         CLEAR     45  34  65 CALM      30.27F

SOUTHERN MEXICO

CITY           SKY/WX    TMP DP  RH WIND       PRES   REMARKS
ACAPULCO       CLEAR     77  72  83 W6        29.77F
B. DE HUATULCO   N/A    N/A N/A N/A MISG        N/A
P. ESCONDIDO     N/A    N/A N/A N/A MISG        N/A
VERACRUZ         N/A    N/A N/A N/A MISG        N/A

YUCATAN PENINSULA

CITY           SKY/WX    TMP DP  RH WIND       PRES   REMARKS
CAMPECHE       CLEAR     82  75  78 E12G23    29.64F
CANCUN         CLEAR     81  77  89 SE18      29.76F
CHETUMAL         N/A    N/A N/A N/A MISG        N/A
CD. DEL CARMEN   N/A    N/A N/A N/A MISG        N/A
COZUMEL        PTCLDY    81  75  83 SE12      29.74F
MERIDA         MOCLDY    81  73  78 SE16      29.70F
MINATITLAN       N/A    N/A N/A N/A MISG        N/A
TAPACHULA      CLEAR     73  70  88 CALM      29.81F

CENTRAL AMERICA

CITY           SKY/WX    TMP DP  RH WIND       PRES   REMARKS
MANAGUA        MOSUNNY   79  73  83 CALM      29.74F

CARIBBEAN

CITY           SKY/WX    TMP DP  RH WIND       PRES   REMARKS
ARUBA          PTCLDY    81  75  83 E16       29.83S
CURACAO        PTCLDY    79  73  83 E12       29.86S
KINGSTON       PTCLDY    82  73  74 SE17      29.83S
NASSAU         PTCLDY    81  73  78 E8        29.94
SAN JUAN       PTCLDY    79  73  83 SE5       29.97R
SANTO DOMINGO  PTCLDY    73  73 100 CALM      29.92S
ST. CROIX      PTCLDY    75  72  88 NE8       29.97
ST. MAARTEN    PTCLDY    79  72  78 E10       29.97S
ST. THOMAS     CLEAR     75  72  88 E8        29.97

$$





USA.gov is the U.S. government's official web portal to all federal, state and local government web resources and services.